• In Czech Republic
  • List of Countries
  • For 7 days
  • Water Temperature
  • Satellite Maps
  • Weather Map
  • Weather Widgets
  • user-avatar
    Login

    Hourly Weather Yulara

    Today, 18 August, Saturday

    Time Temperature Precipitation Wind Pressure Humidity
    00:00 +17°C° 0 mm 7 mps 720 mmHg 32%
    01:00 +17°C° 0 mm 7 mps 720 mmHg 34%
    02:00 +16°C° 0 mm 7 mps 720 mmHg 36%
    03:00 +16°C° 0 mm 7 mps 720 mmHg 37%
    04:00 +15°C° 0 mm 7 mps 720 mmHg 40%
    05:00 +14°C° 0 mm 7 mps 721 mmHg 42%
    06:00 +12°C° 0 mm 7 mps 721 mmHg 45%
    07:00 +14°C° 0 mm 7 mps 722 mmHg 45%
    08:00 +15°C° 0 mm 8 mps 722 mmHg 45%
    09:00 +16°C° 0 mm 8 mps 723 mmHg 46%
    10:00 +18°C° 0 mm 8 mps 723 mmHg 41%
    11:00 +21°C° 0 mm 7 mps 723 mmHg 36%
    12:00 +23°C° 0 mm 7 mps 723 mmHg 31%
    13:00 +23°C° 0 mm 6 mps 722 mmHg 29%
    14:00 +24°C° 0 mm 6 mps 722 mmHg 28%
    15:00 +24°C° 0 mm 6 mps 722 mmHg 26%
    16:00 +23°C° 0 mm 5 mps 722 mmHg 28%
    17:00 +22°C° 0 mm 5 mps 722 mmHg 31%
    18:00 +21°C° 0 mm 5 mps 722 mmHg 33%
    19:00 +20°C° 0 mm 5 mps 723 mmHg 35%
    20:00 +17°C° 0 mm 6 mps 723 mmHg 38%
    21:00 +16°C° 0 mm 7 mps 724 mmHg 40%
    22:00 +15°C° 0 mm 7 mps 724 mmHg 39%
    23:00 +14°C° 0 mm 7 mps 724 mmHg 39%

    Tomorrow, 19 August, Sunday

    Time Temperature Precipitation Wind Pressure Humidity
    00:00 +12°C° 0 mm 7 mps 724 mmHg 38%
    01:00 +12°C° 0 mm 7 mps 725 mmHg 38%
    02:00 +11°C° 0 mm 6 mps 725 mmHg 38%
    03:00 +10°C° 0 mm 6 mps 725 mmHg 38%
    04:00 +10°C° 0 mm 6 mps 725 mmHg 40%
    05:00 +9°C° 0 mm 6 mps 725 mmHg 42%
    06:00 +9°C° 0 mm 6 mps 725 mmHg 43%
    07:00 +10°C° 0 mm 7 mps 726 mmHg 43%
    08:00 +11°C° 0 mm 8 mps 726 mmHg 42%
    09:00 +12°C° 0 mm 9 mps 727 mmHg 41%
    10:00 +15°C° 0 mm 8 mps 726 mmHg 37%
    11:00 +16°C° 0 mm 8 mps 726 mmHg 33%
    12:00 +18°C° 0 mm 8 mps 726 mmHg 29%
    13:00 +20°C° 0 mm 7 mps 725 mmHg 26%
    14:00 +21°C° 0 mm 7 mps 725 mmHg 22%
    15:00 +22°C° 0 mm 7 mps 724 mmHg 19%
    16:00 +20°C° 0 mm 6 mps 724 mmHg 20%
    17:00 +19°C° 0 mm 5 mps 724 mmHg 22%
    18:00 +17°C° 0 mm 5 mps 724 mmHg 23%
    19:00 +16°C° 0 mm 5 mps 724 mmHg 25%
    20:00 +14°C° 0 mm 5 mps 725 mmHg 27%
    21:00 +13°C° 0 mm 5 mps 725 mmHg 30%
    22:00 +12°C° 0 mm 5 mps 725 mmHg 31%
    23:00 +12°C° 0 mm 5 mps 725 mmHg 33%

    Day after tomorrow, 20 August, Monday

    Time Temperature Precipitation Wind Pressure Humidity
    00:00 +10°C° 0 mm 5 mps 725 mmHg 35%
    01:00 +9°C° 0 mm 5 mps 725 mmHg 36%
    02:00 +8°C° 0 mm 4 mps 725 mmHg 38%
    03:00 +8°C° 0 mm 4 mps 725 mmHg 39%
    04:00 +7°C° 0 mm 4 mps 725 mmHg 41%
    05:00 +7°C° 0 mm 4 mps 725 mmHg 42%
    06:00 +6°C° 0 mm 4 mps 725 mmHg 44%
    07:00 +8°C° 0 mm 5 mps 725 mmHg 40%
    08:00 +9°C° 0 mm 5 mps 725 mmHg 36%
    09:00 +11°C° 0 mm 6 mps 725 mmHg 32%
    10:00 +14°C° 0 mm 6 mps 725 mmHg 27%
    11:00 +16°C° 0 mm 6 mps 725 mmHg 22%
    12:00 +19°C° 0 mm 5 mps 724 mmHg 17%
    13:00 +20°C° 0 mm 5 mps 723 mmHg 15%
    14:00 +21°C° 0 mm 4 mps 723 mmHg 13%
    15:00 +22°C° 0 mm 4 mps 722 mmHg 11%
    16:00 +20°C° 0 mm 3 mps 722 mmHg 12%
    17:00 +19°C° 0 mm 3 mps 721 mmHg 13%
    18:00 +17°C° 0 mm 2 mps 721 mmHg 14%
    19:00 +16°C° 0 mm 2 mps 722 mmHg 15%
    20:00 +14°C° 0 mm 3 mps 722 mmHg 16%
    21:00 +13°C° 0 mm 3 mps 722 mmHg 17%
    22:00 +13°C° 0 mm 3 mps 722 mmHg 18%
    23:00 +12°C° 0 mm 3 mps 722 mmHg 20%

    21 August, Tuesday

    Time Temperature Precipitation Wind Pressure Humidity
    00:00 +11°C° 0 mm 3 mps 722 mmHg 21%
    01:00 +11°C° 0 mm 3 mps 721 mmHg 22%
    02:00 +10°C° 0 mm 3 mps 721 mmHg 23%
    03:00 +9°C° 0 mm 3 mps 721 mmHg 25%
    04:00 +9°C° 0 mm 3 mps 721 mmHg 26%
    05:00 +9°C° 0 mm 3 mps 721 mmHg 27%
    06:00 +8°C° 0 mm 3 mps 721 mmHg 28%
    07:00 +10°C° 0 mm 3 mps 721 mmHg 25%
    08:00 +12°C° 0 mm 3 mps 721 mmHg 22%
    09:00 +14°C° 0 mm 3 mps 721 mmHg 19%
    10:00 +17°C° 0 mm 4 mps 721 mmHg 16%
    11:00 +20°C° 0 mm 4 mps 721 mmHg 14%
    12:00 +22°C° 0 mm 4 mps 720 mmHg 11%
    13:00 +23°C° 0 mm 4 mps 719 mmHg 11%
    14:00 +24°C° 0 mm 3 mps 719 mmHg 11%
    15:00 +25°C° 0 mm 3 mps 718 mmHg 11%
    16:00 +23°C° 0 mm 2 mps 718 mmHg 12%
    17:00 +20°C° 0 mm 2 mps 717 mmHg 14%
    18:00 +19°C° 0 mm 1 mps 717 mmHg 16%
    19:00 +18°C° 0 mm 2 mps 718 mmHg 16%
    20:00 +17°C° 0 mm 2 mps 718 mmHg 16%
    21:00 +17°C° 0 mm 2 mps 718 mmHg 16%
    22:00 +17°C° 0 mm 2 mps 718 mmHg 16%
    23:00 +16°C° 0 mm 3 mps 718 mmHg 16%

    22 August, Wednesday

    Time Temperature Precipitation Wind Pressure Humidity
    00:00 +16°C° 0 mm 3 mps 718 mmHg 16%
    01:00 +16°C° 0 mm 3 mps 718 mmHg 17%
    02:00 +14°C° 0 mm 3 mps 717 mmHg 17%
    03:00 +14°C° 0 mm 3 mps 717 mmHg 18%
    04:00 +14°C° 0 mm 3 mps 717 mmHg 18%
    05:00 +13°C° 0 mm 4 mps 717 mmHg 19%
    06:00 +13°C° 0 mm 4 mps 717 mmHg 19%
    07:00 +15°C° 0 mm 4 mps 718 mmHg 18%
    08:00 +17°C° 0 mm 5 mps 718 mmHg 16%
    09:00 +20°C° 0 mm 5 mps 719 mmHg 14%
    10:00 +22°C° 0 mm 6 mps 719 mmHg 13%
    11:00 +24°C° 0 mm 6 mps 718 mmHg 12%
    12:00 +28°C° 0 mm 7 mps 718 mmHg 11%
    13:00 +28°C° 0 mm 7 mps 718 mmHg 11%
    14:00 +29°C° 0 mm 7 mps 717 mmHg 11%
    15:00 +29°C° 0 mm 7 mps 717 mmHg 11%
    16:00 +28°C° 0 mm 7 mps 717 mmHg 14%
    17:00 +26°C° 0 mm 6 mps 717 mmHg 17%
    18:00 +24°C° 0 mm 6 mps 717 mmHg 19%
    19:00 +21°C° 0 mm 7 mps 718 mmHg 30%
    20:00 +18°C° 0 mm 8 mps 719 mmHg 41%
    21:00 +16°C° 0 mm 10 mps 719 mmHg 51%
    22:00 +15°C° 0 mm 9 mps 719 mmHg 50%
    23:00 +13°C° 0 mm 8 mps 720 mmHg 48%

    23 August, Thursday

    Time Temperature Precipitation Wind Pressure Humidity
    00:00 +12°C° 0 mm 7 mps 720 mmHg 46%
    01:00 +13°C° 0 mm 6 mps 720 mmHg 48%
    02:00 +11°C° 0 mm 6 mps 720 mmHg 49%
    03:00 +10°C° 0 mm 6 mps 720 mmHg 51%
    04:00 +9°C° 0 mm 5 mps 721 mmHg 53%
    05:00 +8°C° 0 mm 5 mps 721 mmHg 56%
    06:00 +8°C° 0 mm 4 mps 722 mmHg 58%
    07:00 +8°C° 0 mm 5 mps 722 mmHg 54%
    08:00 +9°C° 0 mm 5 mps 723 mmHg 50%
    09:00 +10°C° 0 mm 6 mps 724 mmHg 47%
    10:00 +13°C° 0 mm 6 mps 723 mmHg 40%
    11:00 +14°C° 0 mm 5 mps 723 mmHg 33%
    12:00 +16°C° 0 mm 5 mps 722 mmHg 26%
    13:00 +17°C° 0 mm 5 mps 722 mmHg 24%
    14:00 +19°C° 0 mm 5 mps 721 mmHg 22%
    15:00 +19°C° 0 mm 5 mps 721 mmHg 20%
    16:00 +19°C° 0 mm 5 mps 721 mmHg 22%
    17:00 +18°C° 0 mm 4 mps 721 mmHg 25%
    18:00 +17°C° 0 mm 4 mps 721 mmHg 27%
    19:00 +15°C° 0 mm 5 mps 722 mmHg 31%
    20:00 +13°C° 0 mm 5 mps 722 mmHg 35%
    21:00 +12°C° 0 mm 5 mps 723 mmHg 39%
    22:00 +10°C° 0 mm 5 mps 723 mmHg 45%
    23:00 +10°C° 0 mm 6 mps 723 mmHg 50%
    Show more